WJA1840 CYUL-CYOW

Flight info

Callsign WJA1840
Flight time 0h 23m
Altitude 16000
Route KESKA DCT ALSET RIVER4
Aircraft B737/M-SDE2E3FGHIRWXY/LB1

Departure

Time 2026-05-05 01:33
Airport Montreal / Pierre Elliott Trudeau International Airport (CYUL)

Arrival

Time 2026-05-05 01:56
Airport Ottawa Macdonald-Cartier International Airport (CYOW)
Time Latitude Longitude Altitude Speed Heading
2026-05-05 01:10 45.45888 -73.74392 104 ft 0 kts 205°
2026-05-05 01:19 45.45896 -73.74387 103 ft 4 kts 205°
2026-05-05 01:19 45.45921 -73.74371 103 ft 4 kts 205°
2026-05-05 01:19 45.45944 -73.74351 102 ft 4 kts 224°
2026-05-05 01:20 45.45956 -73.74323 101 ft 4 kts 277°
2026-05-05 01:20 45.45953 -73.74309 102 ft 1 kts 313°
2026-05-05 01:24 45.45954 -73.74310 102 ft 1 kts 313°
2026-05-05 01:24 45.45964 -73.74326 101 ft 4 kts 313°
2026-05-05 01:24 45.45997 -73.74354 102 ft 7 kts 342°
2026-05-05 01:24 45.46052 -73.74320 102 ft 11 kts 44°
2026-05-05 01:25 45.46104 -73.74242 102 ft 11 kts 45°
2026-05-05 01:25 45.46135 -73.74153 103 ft 10 kts 82°
2026-05-05 01:25 45.46149 -73.74055 104 ft 10 kts 62°
2026-05-05 01:25 45.46197 -73.73981 104 ft 11 kts 41°
2026-05-05 01:26 45.46260 -73.73901 104 ft 13 kts 44°
2026-05-05 01:26 45.46330 -73.73808 106 ft 14 kts 43°
2026-05-05 01:26 45.46406 -73.73708 106 ft 15 kts 41°
2026-05-05 01:26 45.46488 -73.73602 108 ft 17 kts 43°
2026-05-05 01:27 45.46574 -73.73487 109 ft 17 kts 44°
2026-05-05 01:27 45.46662 -73.73374 111 ft 17 kts 42°
2026-05-05 01:27 45.46745 -73.73263 112 ft 16 kts 43°
2026-05-05 01:27 45.46826 -73.73157 113 ft 16 kts 43°
2026-05-05 01:28 45.46905 -73.73054 114 ft 15 kts 43°
2026-05-05 01:28 45.46984 -73.72950 113 ft 15 kts 43°
2026-05-05 01:28 45.47060 -73.72850 115 ft 15 kts 42°
2026-05-05 01:28 45.47144 -73.72740 115 ft 17 kts 41°
2026-05-05 01:29 45.47232 -73.72626 116 ft 16 kts 44°
2026-05-05 01:29 45.47310 -73.72524 116 ft 14 kts 42°
2026-05-05 01:29 45.47379 -73.72435 118 ft 13 kts 42°
2026-05-05 01:29 45.47447 -73.72349 117 ft 13 kts 48°
2026-05-05 01:30 45.47514 -73.72255 117 ft 15 kts 42°
2026-05-05 01:30 45.47602 -73.72141 117 ft 18 kts 45°
2026-05-05 01:30 45.47693 -73.72017 119 ft 18 kts 41°
2026-05-05 01:30 45.47708 -73.71998 119 ft 0 kts 39°
2026-05-05 01:31 45.47726 -73.71978 121 ft 9 kts 39°
2026-05-05 01:31 45.47778 -73.71917 116 ft 10 kts 41°
2026-05-05 01:31 45.47810 -73.71834 120 ft 10 kts 95°
2026-05-05 01:31 45.47780 -73.71749 120 ft 10 kts 124°
2026-05-05 01:32 45.47742 -73.71673 122 ft 9 kts 130°
2026-05-05 01:32 45.47686 -73.71642 122 ft 9 kts 195°
2026-05-05 01:32 45.47663 -73.71659 124 ft 0 kts 213°
2026-05-05 01:32 45.47506 -73.71859 120 ft 71 kts 222°
2026-05-05 01:33 45.46950 -73.72586 117 ft 141 kts 222°
2026-05-05 01:33 45.46136 -73.73636 478 ft 168 kts 221°
2026-05-05 01:33 45.45228 -73.74802 1189 ft 181 kts 223°
2026-05-05 01:33 45.44264 -73.76045 1892 ft 194 kts 222°
2026-05-05 01:34 45.43225 -73.77411 2347 ft 216 kts 226°
2026-05-05 01:34 45.42335 -73.79206 2955 ft 231 kts 252°
2026-05-05 01:34 45.42279 -73.81465 4014 ft 235 kts 278°
2026-05-05 01:34 45.42946 -73.83638 4947 ft 246 kts 298°
2026-05-05 01:35 45.44017 -73.85600 5887 ft 255 kts 303°
2026-05-05 01:35 45.45188 -73.87536 6840 ft 259 kts 305°
2026-05-05 01:35 45.46380 -73.89477 7901 ft 261 kts 305°
2026-05-05 01:35 45.47577 -73.91439 8981 ft 264 kts 305°
2026-05-05 01:36 45.48791 -73.93447 9681 ft 269 kts 305°
2026-05-05 01:36 45.49598 -73.94789 9919 ft 270 kts 305°
2026-05-05 01:36 45.50815 -73.96822 9978 ft 269 kts 305°
2026-05-05 01:36 45.52029 -73.98857 9992 ft 270 kts 304°
2026-05-05 01:37 45.53247 -74.00908 10039 ft 275 kts 304°
2026-05-05 01:37 45.54990 -74.03863 10478 ft 311 kts 305°
2026-05-05 01:37 45.55953 -74.05492 10874 ft 324 kts 305°
2026-05-05 01:37 45.57439 -74.08003 11620 ft 337 kts 306°
2026-05-05 01:38 45.58965 -74.10583 12554 ft 343 kts 306°
2026-05-05 01:38 45.60312 -74.13374 13612 ft 339 kts 292°
2026-05-05 01:38 45.61099 -74.16502 14813 ft 330 kts 282°
2026-05-05 01:38 45.61440 -74.19708 15714 ft 327 kts 271°
2026-05-05 01:39 45.61443 -74.22910 15989 ft 322 kts 268°
2026-05-05 01:39 45.61373 -74.26133 15984 ft 327 kts 268°
2026-05-05 01:39 45.61296 -74.29376 15983 ft 326 kts 268°
2026-05-05 01:39 45.61232 -74.32609 15993 ft 325 kts 268°
2026-05-05 01:40 45.61180 -74.35834 15987 ft 325 kts 268°
2026-05-05 01:40 45.61136 -74.39062 15984 ft 325 kts 268°
2026-05-05 01:40 45.61096 -74.42288 15979 ft 324 kts 269°
2026-05-05 01:40 45.61057 -74.45455 15968 ft 312 kts 268°
2026-05-05 01:41 45.61020 -74.48471 15710 ft 307 kts 268°
2026-05-05 01:41 45.60897 -74.51487 15352 ft 301 kts 263°
2026-05-05 01:41 45.60555 -74.54407 14917 ft 295 kts 259°
2026-05-05 01:41 45.60157 -74.57265 14456 ft 292 kts 259°
2026-05-05 01:42 45.59759 -74.60092 13996 ft 288 kts 259°
2026-05-05 01:42 45.59374 -74.62885 13553 ft 286 kts 258°
2026-05-05 01:42 45.58997 -74.65667 13018 ft 284 kts 258°
2026-05-05 01:42 45.58630 -74.68420 12566 ft 281 kts 258°
2026-05-05 01:43 45.58272 -74.71142 12117 ft 277 kts 258°
2026-05-05 01:43 45.57918 -74.73834 11672 ft 275 kts 258°
2026-05-05 01:43 45.57569 -74.76503 11226 ft 272 kts 258°
2026-05-05 01:43 45.57222 -74.79148 10791 ft 271 kts 258°
2026-05-05 01:44 45.56875 -74.81804 10389 ft 275 kts 258°
2026-05-05 01:44 45.56525 -74.84467 10253 ft 273 kts 258°
2026-05-05 01:44 45.56180 -74.87093 10120 ft 263 kts 258°
2026-05-05 01:44 45.55850 -74.89596 9979 ft 250 kts 258°
2026-05-05 01:45 45.55453 -74.91966 9766 ft 244 kts 251°
2026-05-05 01:45 45.54867 -74.94239 9525 ft 246 kts 249°
2026-05-05 01:45 45.54234 -74.96514 9234 ft 248 kts 248°
2026-05-05 01:45 45.53595 -74.98805 8945 ft 248 kts 248°
2026-05-05 01:46 45.52966 -75.01084 8654 ft 245 kts 248°
2026-05-05 01:46 45.52343 -75.03345 8376 ft 243 kts 248°
2026-05-05 01:46 45.51732 -75.05582 8105 ft 241 kts 248°
2026-05-05 01:46 45.51131 -75.07808 7832 ft 240 kts 248°
2026-05-05 01:47 45.50534 -75.10021 7563 ft 239 kts 248°
2026-05-05 01:47 45.49937 -75.12231 7293 ft 238 kts 248°
2026-05-05 01:47 45.49342 -75.14433 7025 ft 238 kts 248°
2026-05-05 01:47 45.48747 -75.16634 6759 ft 238 kts 248°
2026-05-05 01:48 45.48152 -75.18836 6490 ft 238 kts 248°
2026-05-05 01:48 45.47557 -75.21035 6228 ft 238 kts 248°
2026-05-05 01:48 45.46962 -75.23234 5941 ft 238 kts 248°
2026-05-05 01:48 45.46368 -75.25426 5660 ft 237 kts 248°
2026-05-05 01:49 45.45775 -75.27613 5388 ft 236 kts 248°
2026-05-05 01:49 45.45193 -75.29756 5129 ft 235 kts 248°
2026-05-05 01:49 45.44607 -75.31917 4862 ft 233 kts 247°
2026-05-05 01:49 45.44026 -75.34054 4595 ft 230 kts 248°
2026-05-05 01:50 45.43451 -75.36169 4334 ft 226 kts 247°
2026-05-05 01:50 45.42889 -75.38235 4074 ft 221 kts 247°
2026-05-05 01:50 45.42340 -75.40252 3825 ft 216 kts 247°
2026-05-05 01:50 45.41814 -75.42181 3734 ft 200 kts 247°
2026-05-05 01:51 45.41330 -75.43955 3631 ft 184 kts 246°
2026-05-05 01:51 45.40889 -75.45570 3518 ft 166 kts 247°
2026-05-05 01:51 45.40392 -75.46959 3389 ft 150 kts 237°
2026-05-05 01:51 45.39851 -75.48144 3292 ft 135 kts 237°
2026-05-05 01:52 45.39376 -75.49199 3050 ft 124 kts 238°
2026-05-05 01:52 45.38930 -75.50192 2978 ft 117 kts 238°
2026-05-05 01:52 45.38474 -75.51226 2633 ft 133 kts 237°
2026-05-05 01:52 45.37999 -75.52299 2355 ft 123 kts 238°
2026-05-05 01:53 45.37573 -75.53253 2200 ft 107 kts 237°
2026-05-05 01:53 45.37183 -75.54076 2076 ft 100 kts 237°
2026-05-05 01:53 45.36812 -75.54926 1929 ft 103 kts 237°
2026-05-05 01:53 45.36434 -75.55750 1799 ft 97 kts 235°
2026-05-05 01:54 45.36075 -75.56561 1689 ft 98 kts 236°
2026-05-05 01:54 45.35694 -75.57420 1543 ft 104 kts 237°
2026-05-05 01:54 45.35304 -75.58294 1400 ft 104 kts 235°
2026-05-05 01:54 45.34915 -75.59161 1257 ft 105 kts 233°
2026-05-05 01:55 45.34454 -75.60095 1042 ft 125 kts 233°
2026-05-05 01:55 45.34003 -75.61156 981 ft 126 kts 235°
2026-05-05 01:55 45.33527 -75.62220 780 ft 129 kts 233°
2026-05-05 01:55 45.33056 -75.63303 647 ft 130 kts 234°
2026-05-05 01:56 45.32577 -75.64327 460 ft 121 kts 232°
2026-05-05 01:56 45.32168 -75.65236 389 ft 95 kts 233°
2026-05-05 01:56 45.31874 -75.65891 379 ft 58 kts 238°
2026-05-05 01:56 45.31742 -75.66201 383 ft 15 kts 246°
2026-05-05 01:57 45.31737 -75.66229 383 ft 2 kts 261°
2026-05-05 01:57 45.31743 -75.66299 384 ft 12 kts 289°
2026-05-05 01:57 45.31797 -75.66441 387 ft 19 kts 305°
2026-05-05 01:57 45.31842 -75.66601 388 ft 16 kts 292°
2026-05-05 01:58 45.31892 -75.66688 390 ft 0 kts 306°
2026-05-05 01:58 45.31893 -75.66690 390 ft 2 kts 306°
2026-05-05 01:58 45.31914 -75.66714 390 ft 5 kts 330°
2026-05-05 01:59 45.31954 -75.66741 390 ft 7 kts 333°
2026-05-05 01:59 45.32010 -75.66753 389 ft 9 kts 16°
2026-05-05 01:59 45.32056 -75.66712 388 ft 0 kts 36°
2026-05-05 02:00 45.32057 -75.66711 388 ft 1 kts 36°
2026-05-05 02:00 45.32067 -75.66702 388 ft 3 kts 30°
2026-05-05 02:00 45.32082 -75.66688 388 ft 3 kts 35°
2026-05-05 02:00 45.32096 -75.66673 388 ft 1 kts 35°